Preview of NWS' New Version of Forecast
This preview is not operational and should not be used for support decisions.

Regional Weather Roundup (RWR)

Issued by National Weather Service (NWS)

                            
000
ASUS46 KSEW 221020
RWRWA 

WASHINGTON REGIONAL WEATHER ROUNDUP
NATIONAL WEATHER SERVICE SEATTLE WA
300 AM PDT SUN SEP 22 2019

NOTE:"FAIR" INDICATES FEW OR NO CLOUDS BELOW 12,000 FEET WITH NO 
SIGNIFICANT WEATHER AND/OR OBSTRUCTIONS TO VISIBILITY.

WAZ507-509-555>559-221100-
SEATTLE, TACOMA, EVERETT, AND VICINITY
  
CITY           SKY/WX    TMP DP  RH WIND       PRES   REMARKS
EVERETT        CLOUDY    61  55  81 SE8       29.92F                  
BOEING FIELD   MOCLDY    61  56  83 SE6       29.91F                  
RENTON         CLOUDY    62  56  80 SE3       29.91F                  
SEATAC AIRPORT CLOUDY    61  55  81 S5        29.92F                  
JBLM-MCCHORD   CLOUDY    56  56 100 S3        29.92F                  
PUYALLUP       CLOUDY    59  59 100 CALM      29.93F                  
BREMERTON      CLOUDY    58  56  93 CALM      29.91F                  
JBLM-FT LEWIS  CLOUDY    58  58 100 CALM      29.91F                  
TACOMA NARROWS CLOUDY    58  56  93 SE3       29.92F                  
$$
 
WAZ001-503-506-510-514-515-221100-
NORTH INTERIOR
  
CITY           SKY/WX    TMP DP  RH WIND       PRES   REMARKS
BELLINGHAM     LGT RAIN  60  55  83 CALM      29.89F                  
FRIDAY HARBOR  LGT RAIN  57  55  93 NE3       29.89F                  
EASTSOUND      LGT RAIN  59  57  94 VRB5      29.86F                  
PORT ANGELES   LGT RAIN  56  56 100 E3        29.89F                  
EDIZ HOOK      PTSUNNY   56  56  98 S6        29.88F                  
PORT TOWNSEND  CLOUDY    57  57 100 CALM      29.87F                  
NAS WHIDBEY    LGT RAIN  63  56  78 E8        29.92F                  
ARLINGTON      CLOUDY    59  56  89 NE3       29.91F                  
BURLINGTON     CLOUDY    59  57  94 CALM      29.89F                  
$$
 
WAZ020-022-039-040-504-511-512-221100-
SOUTHWEST INTERIOR
  
CITY           SKY/WX    TMP DP  RH WIND       PRES   REMARKS
SHELTON        CLOUDY    59  56  89 CALM      29.89F                  
OLYMPIA        CLOUDY    57  55  93 CALM      29.92F                  
CHEHALIS       MOCLDY    59  57  94 S5        29.91F                  
KELSO          CLOUDY    61  57  87 CALM      29.93F                  
VANCOUVER      MOCLDY    58  54  86 SE3       29.93F                  
SCAPPOOSE, OR  CLOUDY    60  58  92 CALM      29.92F                  
PORTLAND, OR   PTCLDY    57  53  86 S5        29.94F                  
$$
 
WAZ021-516-517-221100-
WASHINGTON COAST
  
CITY           SKY/WX    TMP DP  RH WIND       PRES   REMARKS
FORKS          LGT RAIN  58  58 100 VRB5      29.86S                  
HOQUIAM        LGT RAIN  59  59 100 E7        29.91S                  
ASTORIA, OR    CLOUDY    58  56  93 E7        29.90F                  
$$
 
WAZ019-023-024-040-567>569-221100-
CASCADE MOUNTAINS AND COLUMBIA GORGE
  
CITY           SKY/WX    TMP DP  RH WIND       PRES   REMARKS
STAMPEDE PASS  FOG       49  47  93 VRB3      29.97S VSB 1/2          
TROUTDALE, OR  PTCLDY    54  51  90 CALM      29.94F                  
HOOD RIVER, OR SUNNY     52  48  87 CALM      29.93F                  
THE DALLES, OR CLEAR     55  49  80 CALM      29.91F                  
$$

WAZ026-027-041>044-520-521-221100-
EAST SLOPES
  
CITY           SKY/WX    TMP DP  RH WIND       PRES   REMARKS
OMAK           CLEAR     51  45  79 NW6       29.90F                  
WENATCHEE      CLEAR     58  48  69 NW7       29.89F                  
ELLENSBURG     CLEAR     50  43  77 NE3       29.91F                  
YAKIMA         CLEAR     51  46  83 W7        29.90F                  
SUNNYSIDE ARPT SUNNY     48  47  95 CALM      29.88                   
YAKIMA TC      FAIR      53  45  75 NE8       29.89F                  
$$

WAZ028-034-035-221100-
COLUMBIA BASIN
  
CITY           SKY/WX    TMP DP  RH WIND       PRES   REMARKS
EPHRATA        CLEAR     52  46  80 N6        29.89F                  
MOSES LAKE     CLEAR     50  43  77 N6        29.89F                  
PASCO          CLEAR     64  50  60 S12       29.88F                  
RICHLAND ARPT  SUNNY     64  53  68 SW7       29.88                   
HERMISTON, OR  CLEAR     55  47  74 S5        29.90F                  
$$

WAZ036>038-221100-
NORTHEAST WASHINGTON
  
CITY           SKY/WX    TMP DP  RH WIND       PRES   REMARKS
SPOKANE GEIGER CLEAR     53  44  71 SE9       29.96F                  
SPOKANE FELTS  CLEAR     50  46  86 NE3       29.97F                  
FAIRCHILD AFB  CLEAR     51  48  87 E3        29.96F                  
COEURDALENE,ID CLEAR     43  41  93 E6        29.99S                  
DEER PARK      CLEAR     40  38  93 CALM      29.97F                  
$$

WAZ029>033-221100-
SOUTHEAST WASHINGTON
  
CITY           SKY/WX    TMP DP  RH WIND       PRES   REMARKS
PULLMAN        CLEAR     53  46  77 E9        29.99F                  
LEWISTON, ID   CLEAR     54  47  77 SE7       29.96S                  
WALLA WALLA    CLEAR     58  46  64 E5        29.92F                  
PENDLETON, OR  CLEAR     53  46  77 SE9       29.93F                  
$$